RADUGA 4 1 10987U 78073A 21015.77666584 -.00000267 00000-0 00000-0 0 9994 2 10987 9.6502 303.0631 0010823 350.0184 195.2130 1.00338872 99764 SL-12 R/B(2) 1 11941U 78073F 21016.52407628 -.00000052 00000-0 00000-0 0 9993 2 11941 11.2583 308.5060 0015593 116.1567 110.1719 0.97569002144007